Regional Weather Roundup
Issued by NWS Northern Indiana

Home | Current Version | Previous Version | Text Only | Print | Product List | Glossary On
Versions: 1 2 3 4 5 6 7 8 9 10 11 12 13 14 15 16 17 18 19 20 21 22 23 24 25 26 27 28 29 30 31 32 33 34 35 36 37 38 39 40 41 42 43 44 45 46 47 48 49 50
611
ASUS43 KIWX 241810
RWRIWX

KIWX WEATHER ROUNDUP
NATIONAL WEATHER SERVICE NORTHERN INDIANA
200 PM EDT FRI MAR 24 2017

NOTE: "FAIR" INDICATES FEW OR NO CLOUDS BELOW 12,000 FEET WITH NO
SIGNIFICANT WEATHER AND/OR OBSTRUCTIONS TO VISIBILITY.

* THESE STATIONS ARE NOT UNDER NWS QUALITY CONTROL. THEY ALSO MAY NOT
  REPORT WEATHER SUCH AS PRECIPITATION OR FOG.

INZ001>027-241900-
NORTHERN INDIANA

CITY           SKY/WX    TMP DP  RH WIND       PRES   REMARKS
GARY*          MOSUNNY   77  41  27 S17G33    29.93F
VALPARAISO     SUNNY     77  53  43 SW24G38   29.97F
6HR MIN TEMP:  51; 6HR MAX TEMP:  77;

MICHIGAN CITY* SUNNY     77  48  36 SW22G29   29.95S
LAPORTE*       SUNNY     74  51  43 SW29G36   29.96F
6HR MIN TEMP:  49; 6HR MAX TEMP:  74;

KNOX*          SUNNY     73  25  16 SW29      29.97F
SOUTH BEND     SUNNY     74  51  44 SW20G30   29.96F
6HR MIN TEMP:  49; 6HR MAX TEMP:  74;

ELKHART*       SUNNY     75  50  41 SW20      29.96F
GOSHEN         SUNNY     74  50  42 SW23G32   29.98F
6HR MIN TEMP:  51; 6HR MAX TEMP:  74;

MONTICELLO*    SUNNY     73  55  51 SW22G31   30.01F
6HR MIN TEMP:  53; 6HR MAX TEMP:  74;

LOGANSPORT*    SUNNY     72  54  53 SW23G30   30.04F
ROCHESTER*     SUNNY     75  54  46 SW23G31   30.02S
WARSAW*        SUNNY     73  54  49 SW16G22   30.00F
ANGOLA*        SUNNY     72  64  78 SW15      29.98F
FORT WAYNE     PTSUNNY   72  56  57 SW24G31   30.03F
6HR MIN TEMP:  51; 6HR MAX TEMP:  72;

HUNTINGTON*    SUNNY     72  55  56 SW18G29   30.03F
6HR MIN TEMP:  51; 6HR MAX TEMP:  72;

PERU/GRISSOM   SUNNY     74  57  55 SW24G31   30.02F
6HR MIN TEMP:  51; 6HR MAX TEMP:  74;

MARION*        SUNNY     72  56  55 SW24G33   30.07S
6HR MIN TEMP:  26; 6HR MAX TEMP:  72;


$$
INZ028>050-241900-
CENTRAL INDIANA

CITY           SKY/WX    TMP DP  RH WIND       PRES   REMARKS
LAFAYETTE      MOSUNNY   73  56  54 SW18G30   30.03F
6HR MIN TEMP:  56; 6HR MAX TEMP:  73;

KOKOMO*        SUNNY     72  57  59 SW26G32   30.06F
6HR MIN TEMP:  48; 6HR MAX TEMP:  72;

MUNCIE*        SUNNY     72  55  55 SW14G28   30.08F
6HR MIN TEMP:  55; 6HR MAX TEMP:  72;

INDIANAPOLIS   MOSUNNY   75  55  49 SW28G35   30.10F
6HR MIN TEMP:  53; 6HR MAX TEMP:  75;


$$
MIZ043>046-050>051-056>058-064>065-071>073-077>080-241900-
SOUTHWEST LOWER MICHIGAN

CITY           SKY/WX    TMP DP  RH WIND       PRES   REMARKS
BATTLE CREEK   CLOUDY    73  52  47 SW21      29.94F
6HR MIN TEMP:  49; 6HR MAX TEMP:  73;

BENTON HARBOR  SUNNY     76  47  35 SW24G36   29.93S
6HR MIN TEMP:  53; 6HR MAX TEMP:  76;

COLDWATER*     CLOUDY    72  50  45 SW20G29   29.97S
6HR MIN TEMP:  51; 6HR MAX TEMP:  72;

HILLSDALE*     CLOUDY    70  50  49 SW21G26   29.98S
HOLLAND        PTSUNNY   61  48  62 SW17      29.94R
6HR MIN TEMP:  54; 6HR MAX TEMP:  63;

GRAND RAPIDS   CLOUDY    63  49  60 W17G24    29.93F
6HR MIN TEMP:  47; 6HR MAX TEMP:  64;

KALAMAZOO      SUNNY     74  48  39 SW21G30   29.94F
6HR MIN TEMP:  50; 6HR MAX TEMP:  74;

STURGIS*       SUNNY     72  53  52 SW20G31   29.96F
6HR MIN TEMP:  49; 6HR MAX TEMP:  72;

THREE RIVERS*  FAIR      74  49  42 SW16G23   29.95F
6HR MIN TEMP:  48; 6HR MAX TEMP:  74;


$$
OHZ001>008-015>018-024>025-241900-
NORTHWEST OHIO

CITY           SKY/WX    TMP DP  RH WIND       PRES   REMARKS
WAUSEON*       FAIR      70  54  56 SW17G26   30.00F
DEFIANCE       SUNNY     71  52  50 SW18G32   30.01F
6HR MIN TEMP:  50; 6HR MAX TEMP:  71;

FINDLAY        SUNNY     72  52  49 SW24G33   30.04F
6HR MIN TEMP:  54; 6HR MAX TEMP:  72;

TOLEDO EXPRESS CLOUDY    69  52  54 SW20G37   30.01F
6HR MIN TEMP:  51; 6HR MAX TEMP:  69;

TOLEDO METCALF MOSUNNY   70  53  54 SW25G37   30.02F
6HR MIN TEMP:  50; 6HR MAX TEMP:  70;

LIMA           SUNNY     71  54  54 SW22G35   30.07F
6HR MIN TEMP:  53; 6HR MAX TEMP:  71;


$$
AND FOR LAKE MICHIGAN COASTAL AND OPEN LAKE BUOY OBSERVATIONS

STATION/POSITION TEMP    WIND        PRES    VSBY  WAVE
                 AIR SEA DIR/SP/G                  HT/PER
                 (F)     (DEG/KT/KT) (MB)    (MI)  (FT/S)
CALUMET HARBOR    76     220/  9/ 26 1012.5F
MICHIGAN CITY     72     200/ 26/ 29   N/A
BURNS HARBOR      71     210/ 20/ 28 1013.9F

$$
&&




USA.gov is the U.S. government's official web portal to all federal, state and local government web resources and services.